This is the latest recevied weather packets stored in our database for station/object KJ6APE. If no packets are shown the sender has not sent any weather packets the latest 1 day(s).
| Time | Temp. | Humidity | Pressure | Rain* | Wind** | Luminosity | Snow |
|---|---|---|---|---|---|---|---|
| 1836274731 | 21.67° C | 60% | 1013.8 hPa | 0 mm | 0 m/s | 0 W/m² | - |
| 1836274584 | 21.67° C | 62% | 1014.1 hPa | 0 mm | 0 m/s | 0 W/m² | - |
| 1836274429 | 21.67° C | 60% | 1013.5 hPa | 0 mm | 0.45 m/s, 150° | 0 W/m² | - |
| 1836274283 | 21.67° C | 61% | 1013.9 hPa | 0 mm | 0 m/s | 0 W/m² | - |
| 1836274128 | 21.67° C | 59% | 1013.6 hPa | 0 mm | 0.45 m/s, 118° | 0 W/m² | - |
| 1778048485 | 12.78° C | 80% | 1018.5 hPa | 0 mm | 0 m/s | 0 W/m² | - |
| 1778048181 | 12.78° C | 80% | 1018.4 hPa | 0 mm | 0 m/s | 0 W/m² | - |
| 1778047879 | 12.78° C | 79% | 1018.7 hPa | 0 mm | 0 m/s | 0 W/m² | - |
| 1778047577 | 13.33° C | 79% | 1018.5 hPa | 0 mm | 1.34 m/s, 136° | 0 W/m² | - |
| 1778047274 | 13.33° C | 79% | 1018.4 hPa | 0 mm | 0.45 m/s, 105° | 0 W/m² | - |
| 1778046971 | 13.33° C | 78% | 1018.3 hPa | 0 mm | 0 m/s | 0 W/m² | - |
| 1778046668 | 13.33° C | 78% | 1018.1 hPa | 0 mm | 0 m/s | 0 W/m² | - |
| 1778046365 | 13.33° C | 78% | 1018.6 hPa | 0 mm | 0.45 m/s, 96° | 0 W/m² | - |
| 1778046060 | 13.89° C | 78% | 1018.4 hPa | 0 mm | 0.45 m/s, 188° | 0 W/m² | - |
| 1778045759 | 13.89° C | 77% | 1018.3 hPa | 0 mm | 0 m/s | 0 W/m² | - |
| 1778045457 | 13.89° C | 77% | 1018.2 hPa | 0 mm | 0 m/s | 0 W/m² | - |
| 1778045155 | 13.89° C | 77% | 1018.2 hPa | 0 mm | 0.45 m/s, 80° | 0 W/m² | - |
| 1778044853 | 13.89° C | 76% | 1018 hPa | 0 mm | 0.45 m/s, 74° | 0 W/m² | - |
| 1778044549 | 13.89° C | 76% | 1018.1 hPa | 0 mm | 0.89 m/s, 145° | 0 W/m² | - |
| 1778044246 | 13.89° C | 76% | 1018 hPa | 0 mm | 0.45 m/s, 96° | 0 W/m² | - |
| 1778043944 | 13.89° C | 75% | 1017.9 hPa | 0 mm | 0.45 m/s, 115° | 0 W/m² | - |
| 1778043641 | 13.89° C | 75% | 1018.1 hPa | 0 mm | 0.45 m/s, 99° | 0 W/m² | - |
| 1778043337 | 13.89° C | 75% | 1018 hPa | 0 mm | 0 m/s | 0 W/m² | - |
| 1778043034 | 14.44° C | 75% | 1017.8 hPa | 0 mm | 0.89 m/s, 120° | 0 W/m² | - |
| 1778042732 | 14.44° C | 75% | 1018 hPa | 0 mm | 0.89 m/s, 131° | 0 W/m² | - |
* Rain latest hour (hover to see other rain measurements)
** Current wind speed in m/s (hover to see current wind gust speed)